Epoch,demod_status_bits,ebno,lock_status,signal_level,viterbi_ber
1664907337,,13.4,0x00c000,-38.5,
1664907338,C;S;V;F,14.2,0x00c000,-37.4,0.00e-0
1664907339,C;S;V;F,,0x00c000,-37.3,0.00e-0
1664907340,C;S;V;F,14.9,0x00c000,-37.4,0.00e-0
1664907341,C;S;V;F,14.4,0x00c000,,0.00e-0
1664907342,C;S;V;F,14.4,0x00c000,-37.7,0.00e-0
1664907343,C;S;V;F,15.1,0x00c000,-36.8,0.00e-0
1664907344,C;S;V;F,14.1,0x00c000,-37.8,0.00e-0
1664907345,C;S;V;F,14.6,0x00c000,-37.3,
1664907346,,14.6,0x00c000,-37.4,0.00e-0
1664907347,C;S;V;F,13.4,0x00c000,-38.5,0.00e-0
1664907348,C;S;V;F,14.8,0x00c000,-37.1,0.00e-0
1664907349,C;S;V;F,14.6,0x00c000,-37.8,0.00e-0
1664907350,C;S;V;F,,0x00c000,-37.9,0.00e-0
1664907351,C;S;V;F,14.1,0x00c000,,0.00e-0
1664907352,C;S;V;F,14.3,0x00c000,-37.6,0.00e-0
1664907353,C;S;V;F,14.5,0x00c000,-37.1,0.00e-0
1664907354,C;S;V;F,15.0,0x00c000,-37.3,0.00e-0
1664907355,C;S;V;F,14.7,0x00c000,-37.5,0.00e-0
1664907356,C;S;V;F,14.9,0x00c000,-37.3,0.00e-0
1664907357,C;S;V;F,14.9,0x00c000,-37.3,0.00e-0
1664907358,C;S;V;F,14.8,0x00c000,-37.1,0.00e-0
1664907359,C;S;V;F,14.9,0x00c000,-37.2,0.00e-0
1664907360,C;S;V;F,15.0,0x00c000,-37.2,
1664907361,,15.0,0x00c000,-37.1,0.00e-0
1664907362,C;S;V;F,15.0,0x00c000,-37.1,0.00e-0
1664907363,C;S;V;F,,0x00c000,-36.4,0.00e-0
1664907364,C;S;V;F,15.5,0x00c000,-37.0,0.00e-0
1664907365,C;S;V;F,15.4,0x00c000,,0.00e-0
1664907366,C;S;V;F,15.5,0x00c000,-36.6,0.00e-0
1664907367,C;S;V;F,15.3,0x00c000,-37.5,0.00e-0
1664907368,C;S;V;F,14.5,0x00c000,-37.9,0.00e-0
1664907369,C;S;V;F,14.7,0x00c000,-37.3,0.00e-0
1664907370,C;S;V;F,15.5,0x00c000,-36.5,0.00e-0
1664907371,C;S;V;F,15.5,0x00c000,-37.1,0.00e-0
1664907372,C;S;V;F,15.0,0x00c000,-37.3,
1664907373,,15.2,0x00c000,-37.1,0.00e-0
1664907374,C;S;V;F,15.2,0x00c000,-37.1,0.00e-0
1664907375,C;S;V;F,,0x00c000,-37.6,0.00e-0
1664907376,C;S;V;F,14.6,0x00c000,,0.00e-0
1664907377,C;S;V;F,15.0,0x00c000,-37.1,0.00e-0
1664907378,C;S;V;F,15.4,0x00c000,-36.9,0.00e-0
1664907379,C;S;V;F,15.1,0x00c000,-37.1,0.00e-0
1664907380,C;S;V;F,15.4,0x00c000,-36.8,0.00e-0
1664907381,C;S;V;F,15.3,0x00c000,-37.0,0.00e-0
1664907382,C;S;V;F,15.4,0x00c000,-36.9,0.00e-0
1664907383,C;S;V;F,15.3,0x00c000,-36.9,0.00e-0
1664907384,C;S;V;F,15.6,0x00c000,-36.4,
1664907385,,15.9,0x00c000,-36.4,0.00e-0
1664907386,C;S;V;F,15.7,0x00c000,-36.5,0.00e-0
1664907387,C;S;V;F,,0x00c000,-37.1,0.00e-0
1664907388,C;S;V;F,15.3,0x00c000,-36.6,0.00e-0
1664907389,C;S;V;F,15.7,0x00c000,,0.00e-0
1664907390,C;S;V;F,15.8,0x00c000,-36.6,0.00e-0
1664907391,C;S;V;F,15.4,0x00c000,-36.6,0.00e-0
1664907395,C;S;V;F,16.0,0x00c000,-36.1,0.00e-0
1664907396,C;S;V;F,15.8,0x00c000,-36.7,0.00e-0
1664907397,C;S;V;F,15.7,0x00c000,-36.4,0.00e-0
1664907400,C;S;V;F,15.8,0x00c000,-36.5,0.00e-0
1664907401,C;S;V;F,16.1,0x00c000,-36.2,0.00e-0
1664907402,C;S;V;F,16.0,0x00c000,-36.3,0.00e-0
1664907403,C;S;V;F,16.1,0x00c000,-36.2,0.00e-0
1664907404,C;S;V;F,15.8,0x00c000,-36.4,0.00e-0
1664907405,C;S;V;F,15.8,0x00c000,-36.4,
1664907406,,15.9,0x00c000,-36.4,0.00e-0
1664907407,C;S;V;F,15.9,0x00c000,-36.3,0.00e-0
1664907408,C;S;V;F,16.2,0x00c000,-36.1,0.00e-0
1664907409,C;S;V;F,,0x00c000,-35.7,0.00e-0
1664907410,C;S;V;F,16.5,0x00c000,-36.1,0.00e-0
1664907411,C;S;V;F,16.2,0x00c000,,0.00e-0
1664907412,C;S;V;F,16.0,0x00c000,-36.3,0.00e-0
1664907413,C;S;V;F,16.4,0x00c000,-35.9,0.00e-0
1664907414,C;S;V;F,16.4,0x00c000,-35.9,0.00e-0
1664907415,C;S;V;F,16.4,0x00c000,-35.9,0.00e-0
1664907416,C;S;V;F,16.6,0x00c000,-35.5,
1664907417,C;S;V;F,16.8,0x00c000,-35.5,0.00e-0
1664907418,,16.5,0x00c000,-35.6,0.00e-0
1664907419,C;S;V;F,,0x00c000,-36.0,0.00e-0
1664907420,C;S;V;F,16.2,0x00c000,-36.0,0.00e-0
1664907421,C;S;V;F,16.4,0x00c000,,0.00e-0
1664907422,C;S;V;F,16.6,0x00c000,-35.6,0.00e-0
1664907423,C;S;V;F,16.4,0x00c000,-35.6,0.00e-0
1664907424,C;S;V;F,16.8,0x00c000,-35.5,0.00e-0
1664907425,C;S;V;F,16.8,0x00c000,-35.5,0.00e-0
1664907426,C;S;V;F,16.7,0x00c000,-35.6,0.00e-0
1664907427,C;S;V;F,16.7,0x00c000,-35.5,0.00e-0
1664907428,C;S;V;F,16.5,0x00c000,-35.6,0.00e-0
1664907429,C;S;V;F,16.6,0x00c000,-35.6,0.00e-0
1664907430,C;S;V;F,16.8,0x00c000,-35.8,
1664907431,,16.6,0x00c000,-35.6,0.00e-0
1664907432,C;S;V;F,16.7,0x00c000,-35.5,0.00e-0
1664907433,C;S;V;F,,0x00c000,-35.6,0.00e-0
1664907434,C;S;V;F,16.6,0x00c000,-35.4,0.00e-0
1664907435,C;S;V;F,16.9,0x00c000,,0.00e-0
1664907436,C;S;V;F,16.9,0x00c000,-35.6,0.00e-0
1664907437,C;S;V;F,16.7,0x00c000,-35.8,0.00e-0
1664907438,C;S;V;F,16.7,0x00c000,-35.8,0.00e-0
1664907439,C;S;V;F,16.6,0x00c000,-35.8,0.00e-0
1664907440,C;S;V;F,16.6,0x00c000,-35.8,0.00e-0
1664907441,C;S;V;F,16.9,0x00c000,-35.5,0.00e-0
1664907442,C;S;V;F,16.6,0x00c000,-35.5,0.00e-0
1664907443,C;S;V;F,16.7,0x00c000,-35.6,0.00e-0
1664907444,C;S;V;F,16.8,0x00c000,-35.9,
1664907445,,16.7,0x00c000,-35.6,0.00e-0
1664907446,C;S;V;F,16.9,0x00c000,-35.5,0.00e-0
1664907447,C;S;V;F,17.0,0x00c000,-35.4,0.00e-0
1664907448,C;S;V;F,,0x00c000,,0.00e-0
1664907449,C;S;V;F,16.6,0x00c000,-35.6,0.00e-0
1664907450,C;S;V;F,16.8,0x00c000,-35.6,0.00e-0
1664907451,C;S;V;F,17.0,0x00c000,-35.4,0.00e-0
1664907452,C;S;V;F,16.9,0x00c000,-35.5,0.00e-0
1664907453,C;S;V;F,17.1,0x00c000,-35.5,0.00e-0
1664907454,C;S;V;F,17.0,0x00c000,-35.5,0.00e-0
1664907455,C;S;V;F,17.1,0x00c000,-35.4,0.00e-0
1664907456,C;S;V;F,17.2,0x00c000,-34.9,
1664907457,,16.8,0x00c000,-35.5,0.00e-0
1664907458,C;S;V;F,16.3,0x00c000,-36.3,0.00e-0
1664907459,C;S;V;F,16.4,0x00c000,-36.2,0.00e-0
1664907460,C;S;V;F,,0x00c000,,0.00e-0
1664907462,,,0x00c000,-35.8,
1664907463,C;S;V;F,16.7,0x00c000,,0.00e-0
1664907464,C;S;V;F,16.6,0x00c000,-35.9,0.00e-0
1664907465,C;S;V;F,16.6,0x00c000,-35.8,0.00e-0
1664907466,C;S;V;F,16.9,0x00c000,-35.6,0.00e-0
1664907467,C;S;V;F,17.0,0x00c000,-35.6,0.00e-0
1664907468,C;S;V;F,16.8,0x00c000,-35.6,0.00e-0
1664907469,C;S;V;F,16.9,0x00c000,-35.6,0.00e-0
1664907470,C;S;V;F,16.6,0x00c000,-35.7,0.00e-0
1664907471,C;S;V;F,16.8,0x00c000,-35.9,
1664907472,,16.7,0x00c000,-35.9,0.00e-0
1664907473,C;S;V;F,16.8,0x00c000,-35.7,0.00e-0
1664907474,C;S;V;F,,0x00c000,-35.8,0.00e-0
1664907475,C;S;V;F,16.7,0x00c000,-35.8,0.00e-0
1664907476,C;S;V;F,16.8,0x00c000,,0.00e-0
1664907477,C;S;V;F,16.5,0x00c000,-35.9,0.00e-0
1664907478,C;S;V;F,16.7,0x00c000,-35.9,0.00e-0
1664907479,C;S;V;F,17.0,0x00c000,-35.8,0.00e-0
1664907480,C;S;V;F,16.7,0x00c000,-35.8,0.00e-0
1664907481,C;S;V;F,16.5,0x00c000,-35.9,0.00e-0
1664907482,C;S;V;F,16.5,0x00c000,-36.0,0.00e-0
1664907483,C;S;V;F,16.4,0x00c000,-36.4,0.00e-0
1664907484,C;S;V;F,16.3,0x00c000,-36.3,0.00e-0
1664907485,,16.4,0x00c000,-36.3,
1664907486,C;S;V;F,16.5,0x00c000,-36.3,0.00e-0
1664907487,C;S;V;F,16.4,0x00c000,-36.3,0.00e-0
1664907488,C;S;V;F,,0x00c000,-36.3,0.00e-0
1664907489,C;S;V;F,16.5,0x00c000,-36.4,0.00e-0
1664907490,C;S;V;F,16.3,0x00c000,,0.00e-0
1664907491,C;S;V;F,16.2,0x00c000,-36.5,0.00e-0
1664907492,C;S;V;F,16.2,0x00c000,-36.3,0.00e-0
1664907493,C;S;V;F,16.3,0x00c000,-36.4,0.00e-0
1664907494,C;S;V;F,16.2,0x00c000,-36.4,0.00e-0
1664907495,C;S;V;F,16.0,0x00c000,-36.8,0.00e-0
1664907496,C;S;V;F,16.1,0x00c000,-37.1,0.00e-0
1664907497,C;S;V;F,16.0,0x00c000,-36.8,0.00e-0
1664907498,C;S;V;F,16.1,0x00c000,-36.8,0.00e-0
1664907499,C;S;V;F,15.9,0x00c000,-36.7,0.00e-0
1664907500,,16.1,0x00c000,-36.8,
1664907501,C;S;V;F,15.9,0x00c000,-36.8,0.00e-0
1664907502,C;S;V;F,16.0,0x00c000,-36.8,0.00e-0
1664907503,C;S;V;F,15.8,0x00c000,-36.9,0.00e-0
1664907504,C;S;V;F,,0x00c000,,0.00e-0
1664907505,C;S;V;F,15.9,0x00c000,-37.1,0.00e-0
1664907506,C;S;V;F,15.8,0x00c000,-37.0,0.00e-0
1664907507,C;S;V;F,15.7,0x00c000,-36.9,0.00e-0
1664907508,C;S;V;F,15.9,0x00c000,-36.9,0.00e-0
1664907509,C;S;V;F,15.8,0x00c000,-37.1,0.00e-0
1664907510,,15.6,0x00c000,-37.1,
1664907511,C;S;V;F,15.8,0x00c000,-37.1,0.00e-0
1664907512,C;S;V;F,15.7,0x00c000,-37.1,0.00e-0
1664907513,C;S;V;F,,0x00c000,-37.2,0.00e-0
1664907514,C;S;V;F,15.8,0x00c000,-37.2,0.00e-0
1664907515,C;S;V;F,15.8,0x00c000,,0.00e-0
1664907516,C;S;V;F,15.9,0x00c000,-37.1,0.00e-0
1664907517,C;S;V;F,15.9,0x00c000,-37.1,0.00e-0
1664907518,C;S;V;F,15.7,0x00c000,-36.9,0.00e-0
1664907519,C;S;V;F,15.7,0x00c000,-37.2,0.00e-0
1664907520,C;S;V;F,15.6,0x00c000,-37.2,0.00e-0
1664907521,C;S;V;F,15.8,0x00c000,-37.1,0.00e-0
1664907522,C;S;V;F,15.7,0x00c000,-37.2,0.00e-0
1664907523,C;S;V;F,15.6,0x00c000,-37.2,0.00e-0
1664907525,,16.0,0x00c000,-37.1,
1664907526,C;S;V;F,,0x00c000,-37.0,0.00e-0
1664907527,C;S;V;F,16.0,0x00c000,-37.0,0.00e-0
1664907528,C;S;V;F,15.9,0x00c000,,0.00e-0
1664907529,C;S;V;F,15.8,0x00c000,-37.2,0.00e-0
1664907530,C;S;V;F,15.9,0x00c000,-37.3,0.00e-0
1664907531,C;S;V;F,15.7,0x00c000,-37.2,0.00e-0
1664907532,C;S;V;F,15.8,0x00c000,-37.1,0.00e-0
1664907533,C;S;V;F,15.6,0x00c000,-37.3,
1664907534,C;S;V;F,15.9,0x00c000,-37.1,0.00e-0
1664907535,,15.8,0x00c000,-37.0,0.00e-0
1664907536,C;S;V;F,15.8,0x00c000,-37.1,0.00e-0
1664907537,C;S;V;F,15.9,0x00c000,-37.2,0.00e-0
1664907538,C;S;V;F,15.4,0x00c000,-37.2,0.00e-0
1664907539,C;S;V;F,,0x00c000,-37.5,0.00e-0
1664907540,C;S;V;F,15.4,0x00c000,-37.6,0.00e-0
1664907541,C;S;V;F,15.5,0x00c000,,0.00e-0
1664907542,C;S;V;F,15.6,0x00c000,-37.6,0.00e-0
1664907543,C;S;V;F,15.6,0x00c000,-37.5,0.00e-0
1664907544,C;S;V;F,15.6,0x00c000,-37.6,0.00e-0
1664907545,C;S;V;F,15.6,0x00c000,-37.2,0.00e-0
1664907546,C;S;V;F,15.7,0x00c000,-37.2,0.00e-0
1664907547,C;S;V;F,16.0,0x00c000,-37.1,0.00e-0
1664907548,C;S;V;F,15.8,0x00c000,-36.9,0.00e-0
1664907549,,16.0,0x00c000,-36.7,
1664907550,C;S;V;F,16.0,0x00c000,-36.8,0.00e-0
1664907551,C;S;V;F,15.9,0x00c000,-36.9,0.00e-0
1664907552,C;S;V;F,15.8,0x00c000,-36.9,0.00e-0
1664907553,C;S;V;F,,0x00c000,-36.9,0.00e-0
1664907554,C;S;V;F,16.0,0x00c000,,0.00e-0
1664907555,C;S;V;F,16.1,0x00c000,-36.8,0.00e-0
1664907556,C;S;V;F,16.0,0x00c000,-37.2,0.00e-0
1664907557,C;S;V;F,16.0,0x00c000,-37.1,0.00e-0
1664907558,C;S;V;F,15.5,0x00c000,-37.4,0.00e-0
1664907559,C;S;V;F,15.4,0x00c000,-37.8,0.00e-0
1664907560,C;S;V;F,15.4,0x00c000,-37.7,0.00e-0
1664907561,C;S;V;F,15.2,0x00c000,-37.7,0.00e-0
1664907562,,15.2,0x00c000,-37.9,
1664907563,C;S;V;F,15.0,0x00c000,-38.0,0.00e-0
1664907564,C;S;V;F,15.0,0x00c000,-38.2,0.00e-0
1664907565,C;S;V;F,,0x00c000,-38.3,0.00e-0
1664907566,C;S;V;F,14.7,0x00c000,,0.00e-0
1664907567,C;S;V;F,14.9,0x00c000,-38.4,0.00e-0
1664907568,C;S;V;F,14.9,0x00c000,-38.4,0.00e-0
1664907569,C;S;V;F,15.0,0x00c000,-38.0,0.00e-0
1664907570,C;S;V;F,14.9,0x00c000,-38.0,0.00e-0
1664907571,C;S;V;F,15.1,0x00c000,-37.9,0.00e-0
1664907572,C;S;V;F,15.0,0x00c000,-38.0,0.00e-0
1664907573,C;S;V;F,15.1,0x00c000,-37.9,0.00e-0
1664907574,C;S;V;F,15.2,0x00c000,-38.0,0.00e-0
1664907575,C;S;V;F,15.1,0x00c000,-37.9,0.00e-0
1664907576,C;S;V;F,15.1,0x00c000,-37.9,
1664907577,,15.0,0x00c000,-37.9,0.00e-0
1664907578,C;S;V;F,15.2,0x00c000,-38.0,0.00e-0
1664907579,C;S;V;F,14.8,0x00c000,-38.0,0.00e-0
1664907580,C;S;V;F,15.0,0x00c000,-38.1,0.00e-0
1664907581,C;S;V;F,,0x00c000,-38.0,0.00e-0
1664907582,C;S;V;F,14.7,0x00c000,-38.0,0.00e-0
1664907583,C;S;V;F,14.8,0x00c000,,0.00e-0
1664907584,C;S;V;F,15.2,0x00c000,-37.9,0.00e-0
1664907585,C;S;V;F,15.2,0x00c000,-37.6,0.00e-0
1664907586,C;S;V;F,15.5,0x00c000,-37.4,0.00e-0
1664907588,C;S;V;F,15.2,0x00c000,-37.6,
1664907589,,15.3,0x00c000,-37.6,0.00e-0
1664907590,C;S;V;F,15.2,0x00c000,-37.8,0.00e-0
1664907591,C;S;V;F,14.9,0x00c000,-38.2,0.00e-0
1664907592,C;S;V;F,14.8,0x00c000,-38.2,0.00e-0
1664907593,C;S;V;F,,0x00c000,-38.5,0.00e-0
1664907594,C;S;V;F,14.9,0x00c000,-38.3,0.00e-0
1664907595,C;S;V;F,14.7,0x00c000,,0.00e-0
1664907596,C;S;V;F,15.1,0x00c000,-37.9,0.00e-0
1664907597,C;S;V;F,15.2,0x00c000,-37.9,0.00e-0
1664907598,C;S;V;F,15.3,0x00c000,-37.3,0.00e-0
1664907599,C;S;V;F,15.5,0x00c000,-37.9,0.00e-0
1664907600,C;S;V;F,14.9,0x00c000,-38.5,0.00e-0
1664907601,C;S;V;F,14.5,0x00c000,-38.4,0.00e-0
1664907602,C;S;V;F,14.7,0x00c000,-38.3,0.00e-0
1664907603,C;S;V;F,15.0,0x00c000,-38.0,0.00e-0
1664907604,C;S;V;F,15.0,0x00c000,-37.9,
1664907605,,15.1,0x00c000,-37.6,0.00e-0
1664907606,C;S;V;F,15.1,0x00c000,-37.8,0.00e-0
1664907607,C;S;V;F,15.0,0x00c000,-38.0,0.00e-0
1664907608,C;S;V;F,15.0,0x00c000,-38.0,0.00e-0
1664907609,C;S;V;F,15.2,0x00c000,-38.0,0.00e-0
1664907610,C;S;V;F,,0x00c000,-37.6,0.00e-0
1664907611,C;S;V;F,15.5,0x00c000,,0.00e-0
1664907612,C;S;V;F,15.3,0x00c000,-37.7,0.00e-0
1664907613,C;S;V;F,15.1,0x00c000,-37.9,0.00e-0
1664907614,C;S;V;F,14.9,0x00c000,-38.3,0.00e-0
1664907615,C;S;V;F,14.0,0x00c000,-39.0,0.00e-0
1664907616,C;S;V;F,13.5,0x00c000,-39.4,0.00e-0
1664907617,C;S;V;F,14.2,0x00c000,-38.7,0.00e-0
1664907618,C;S;V;F,14.2,0x00c000,-38.5,0.00e-0
1664907619,C;S;V;F,14.1,0x00c000,-39.2,
1664907620,,14.1,0x00c000,-38.8,0.00e-0
1664907621,C;S;V;F,14.6,0x00c000,-38.6,0.00e-0
1664907622,C;S;V;F,14.3,0x00c000,-38.5,0.00e-0
1664907623,C;S;V;F,,0x00c000,-38.7,0.00e-0
1664907624,C;S;V;F,14.5,0x00c000,,0.00e-0
1664907625,C;S;V;F,14.3,0x00c000,-39.1,0.00e-0
1664907626,C;S;V;F,14.1,0x00c000,-39.1,0.00e-0
1664907627,C;S;V;F,14.0,0x00c000,-38.8,0.00e-0
1664907628,C;S;V;F,14.7,0x00c000,-38.2,0.00e-0
1664907629,C;S;V;F,14.2,0x00c000,-38.3,0.00e-0
1664907630,C;S;V;F,14.2,0x00c000,-39.1,0.00e-0
1664907631,C;S;V;F,14.2,0x00c000,-38.0,0.00e-0
1664907632,C;S;V;F,14.7,0x00c000,-38.1,0.00e-0
1664907633,C;S;V;F,13.7,0x00c000,-39.4,0.00e-0
1664907634,,13.7,0x00c000,-39.4,
1664907635,C;S;V;F,14.3,0x00c000,-39.1,0.00e-0
1664907636,C;S;V;F,15.2,0x00c000,-37.9,0.00e-0
1664907637,C;S;V;F,,0x00c000,-37.3,0.00e-0
1664907638,C;S;V;F,15.5,0x00c000,,0.00e-0
1664907639,C;S;V;F,15.9,0x00c000,-36.9,0.00e-0
1664907640,C;S;V;F,15.9,0x00c000,-37.0,0.00e-0
1664907641,C;S;V;F,15.0,0x00c000,-38.1,0.00e-0
1664907642,C;S;V;F,15.0,0x00c000,-37.2,0.00e-0
1664907643,C;S;V;F,16.0,0x00c000,-36.5,0.00e-0
1664907644,C;S;V;F,15.7,0x00c000,-37.8,0.00e-0
1664907645,C;S;V;F,15.1,0x00c000,-37.3,0.00e-0
1664907646,C;S;V;F,15.9,0x00c000,-36.4,
1664907647,C;S;V;F,15.3,0x00c000,-37.7,0.00e-0
1664907648,,15.4,0x00c000,-37.4,0.00e-0
1664907649,C;S;V;F,,,,0.00e-0
1664907651,C;S;V;F,15.3,0x00c000,-37.5,0.00e-0
1664907652,C;S;V;F,16.1,0x00c000,-36.9,0.00e-0
1664907653,C;S;V;F,16.2,0x00c000,-36.3,0.00e-0
1664907654,C;S;V;F,15.7,0x00c000,-37.0,0.00e-0
1664907655,C;S;V;F,15.0,0x00c000,-38.0,0.00e-0
1664907656,C;S;V;F,14.9,0x00c000,-38.4,0.00e-0
1664907657,,14.4,0x00c000,-38.8,
1664907658,C;S;V;F,14.5,0x00c000,-38.6,0.00e-0
1664907659,C;S;V;F,,0x00c000,-38.2,0.00e-0
1664907660,C;S;V;F,14.8,0x00c000,,0.00e-0
1664907661,C;S;V;F,14.7,0x00c000,-38.5,0.00e-0
1664907662,C;S;V;F,14.6,0x00c000,-38.8,0.00e-0
1664907663,C;S;V;F,14.1,0x00c000,-38.9,0.00e-0
1664907664,C;S;V;F,14.4,0x00c000,-38.7,0.00e-0
1664907665,C;S;V;F,14.2,0x00c000,-39.1,0.00e-0
1664907666,C;S;V;F,14.0,0x00c000,-39.3,0.00e-0
1664907667,,13.8,0x00c000,-39.5,
1664907668,C;S;V;F,13.3,0x00c000,-39.8,0.00e-0
1664907669,C;S;V;F,14.2,0x00c000,-39.0,0.00e-0
1664907670,C;S;V;F,,0x00c000,-39.0,0.00e-0
1664907671,C;S;V;F,14.1,0x00c000,-38.7,0.00e-0
1664907672,C;S;V;F,14.6,0x00c000,,0.00e-0
1664907673,C;S;V;F,15.0,0x00c000,-38.1,0.00e-0
1664907674,C;S;V;F,15.7,0x00c000,-37.7,0.00e-0
1664907675,C;S;V;F,15.7,0x00c000,-37.2,0.00e-0
1664907676,C;S;V;F,15.7,0x00c000,-37.2,0.00e-0
1664907677,C;S;V;F,16.3,0x00c000,-36.5,0.00e-0
1664907678,,16.8,0x00c000,-35.3,
1664907679,C;S;V;F,17.4,0x00c000,-34.8,0.00e-0
1664907680,C;S;V;F,,0x00c000,-34.7,0.00e-0
1664907681,C;S;V;F,17.7,0x00c000,-34.0,0.00e-0
1664907682,C;S;V;F,17.8,0x00c000,,0.00e-0
1664907683,C;S;V;F,17.9,0x00c000,-34.2,0.00e-0
1664907684,C;S;V;F,18.3,0x00c000,-33.7,0.00e-0
1664907685,C;S;V;F,18.3,0x00c000,-33.3,0.00e-0
1664907686,C;S;V;F,18.6,0x00c000,-33.5,0.00e-0
1664907687,C;S;V;F,18.6,0x00c000,-33.0,0.00e-0
1664907688,C;S;V;F,18.7,0x00c000,-32.9,0.00e-0
1664907689,C;S;V;F,18.9,0x00c000,-33.0,0.00e-0
1664907690,C;S;V;F,18.7,0x00c000,-33.2,
1664907691,,18.8,0x00c000,-33.4,0.00e-0
1664907692,C;S;V;F,18.9,0x00c000,-33.1,0.00e-0
1664907693,C;S;V;F,18.7,0x00c000,-33.5,0.00e-0
1664907694,C;S;V;F,,0x00c000,,0.00e-0
1664907716,C;S;V;F,18.3,0x00c000,-33.4,0.00e-0
1664907717,C;S;V;F,18.5,0x00c000,-33.2,0.00e-0
1664907718,C;S;V;F,18.3,0x00c000,-33.2,0.00e-0
1664907719,C;S;V;F,18.6,0x00c000,-33.2,0.00e-0
1664907720,,18.5,0x00c000,-33.6,
1664907721,C;S;V;F,18.3,0x00c000,-34.0,0.00e-0
1664907722,C;S;V;F,18.2,0x00c000,-34.2,0.00e-0
1664907723,C;S;V;F,17.9,0x00c000,-34.8,0.00e-0
1664907724,C;S;V;F,,0x00c000,-34.9,0.00e-0
1664907725,C;S;V;F,17.8,0x00c000,-35.4,0.00e-0
1664907726,C;S;V;F,17.6,0x00c000,-35.7,0.00e-0
1664907727,C;S;V;F,17.1,0x00c000,,0.00e-0
1664907728,C;S;V;F,16.9,0x00c000,-35.9,0.00e-0
1664907729,C;S;V;F,16.4,0x00c000,-36.4,0.00e-0
1664907730,C;S;V;F,16.2,0x00c000,-36.7,0.00e-0
1664907731,C;S;V;F,15.8,0x00c000,-36.9,0.00e-0
1664907732,C;S;V;F,15.8,0x00c000,-37.6,0.00e-0
1664907733,C;S;V;F,15.5,0x00c000,-37.6,0.00e-0
1664907734,C;S;V;F,15.4,0x00c000,-37.7,0.00e-0
1664907735,C;S;V;F,15.3,0x00c000,-37.7,0.00e-0
1664907736,C;S;V;F,15.2,0x00c000,-38.0,
1664907737,,15.2,0x00c000,-38.0,0.00e-0
1664907738,C;S;V;F,15.3,0x00c000,-37.9,0.00e-0
1664907739,C;S;V;F,15.2,0x00c000,-37.8,0.00e-0
1664907740,C;S;V;F,,0x00c000,-37.9,0.00e-0
1664907741,C;S;V;F,15.3,0x00c000,,0.00e-0
1664907742,C;S;V;F,15.5,0x00c000,-37.7,0.00e-0
1664907743,C;S;V;F,15.4,0x00c000,-37.6,0.00e-0
1664907744,C;S;V;F,15.5,0x00c000,-37.6,0.00e-0
1664907745,C;S;V;F,15.3,0x00c000,-37.9,0.00e-0
1664907746,C;S;V;F,15.4,0x00c000,-38.1,0.00e-0
1664907747,C;S;V;F,15.2,0x00c000,-37.6,0.00e-0
1664907748,C;S;V;F,15.4,0x00c000,-37.5,
1664907749,,15.4,0x00c000,-37.5,0.00e-0
1664907750,C;S;V;F,15.5,0x00c000,-37.7,0.00e-0
1664907751,C;S;V;F,15.2,0x00c000,-38.2,0.00e-0
1664907752,C;S;V;F,,0x00c000,-38.7,0.00e-0
1664907753,C;S;V;F,14.7,0x00c000,,0.00e-0
1664907754,C;S;V;F,14.2,0x00c000,-39.4,0.00e-0
1664907755,C;S;V;F,13.6,0x00c000,-39.7,0.00e-0
1664907756,C;S;V;F,13.6,0x00c000,-39.4,0.00e-0
1664907757,C;S;V;F,13.8,0x00c000,-39.1,0.00e-0
1664907758,C;S;V;F,13.8,0x00c000,-39.4,0.00e-0
1664907759,C;S;V;F,13.6,0x00c000,-39.5,
1664907760,,13.8,0x00c000,-39.3,0.00e-0
1664907761,C;S;V;F,,0x00c000,-39.1,0.00e-0
1664907762,C;S;V;F,14.0,0x00c000,,0.00e-0
1664907763,C;S;V;F,13.8,0x00c000,-39.3,0.00e-0
1664907764,C;S;V;F,13.7,0x00c000,-39.7,0.00e-0
1664907765,C;S;V;F,13.4,0x00c000,-39.6,0.00e-0
1664907766,C;S;V;F,13.9,0x00c000,-39.1,0.00e-0
1664907767,C;S;V;F,14.3,0x00c000,-38.8,0.00e-0
1664907768,C;S;V;F,14.6,0x00c000,-38.5,0.00e-0
1664907769,C;S;V;F,14.7,0x00c000,-38.8,0.00e-0
1664907770,C;S;V;F,14.2,0x00c000,-38.9,0.00e-0
1664907771,C;S;V;F,14.3,0x00c000,-38.8,
1664907772,,14.4,0x00c000,-38.7,0.00e-0
1664907773,C;S;V;F,14.9,0x00c000,-38.1,0.00e-0
1664907774,C;S;V;F,,0x00c000,,0.00e-0
1664907775,,,0x00c000,-37.9,
1664907776,C;S;V;F,15.2,0x00c000,,0.00e-0
1664907777,C;S;V;F,15.1,0x00c000,-38.1,0.00e-0
1664907778,C;S;V;F,14.7,0x00c000,-38.3,0.00e-0
1664907779,C;S;V;F,14.4,0x00c000,-38.8,0.00e-0
1664907780,C;S;V;F,14.2,0x00c000,-39.1,0.00e-0
1664907781,C;S;V;F,13.8,0x00c000,-39.3,0.00e-0
1664907782,C;S;V;F,13.8,0x00c000,-39.4,0.00e-0
1664907783,C;S;V;F,13.8,0x00c000,-39.4,0.00e-0
1664907784,C;S;V;F,13.9,0x00c000,-39.4,0.00e-0
1664907785,C;S;V;F,13.8,0x00c000,-39.3,0.00e-0
1664907786,C;S;V;F,13.8,0x00c000,-39.9,0.00e-0
1664907787,C;S;V;F,13.3,0x00c000,-40.0,
1664907788,,13.3,0x00c000,-39.9,0.00e-0
1664907789,C;S;V;F,13.2,0x00c000,-40.0,0.00e-0
1664907790,C;S;V;F,13.0,0x00c000,-40.1,0.00e-0
1664907791,C;S;V;F,,0x00c000,-40.5,0.00e-0
1664907792,C;S;V;F,12.6,0x00c000,-40.3,4.54e-7
1664907793,C;S;V;F,13.0,0x00c000,,1.21e-6
1664907794,C;S;V;F,13.1,0x00c000,-40.3,4.54e-7
1664907795,C;S;V;F,12.8,0x00c000,-40.2,0.00e-0
1664907796,C;S;V;F,13.0,0x00c000,-40.1,3.03e-7
1664907797,C;S;V;F,13.6,0x00c000,-39.4,0.00e-0
1664907798,C;S;V;F,13.8,0x00c000,-39.6,0.00e-0
1664907799,C;S;V;F,13.5,0x00c000,-39.5,0.00e-0
1664907800,C;S;V;F,13.6,0x00c000,-39.8,0.00e-0
1664907801,C;S;V;F,13.7,0x00c000,-39.4,0.00e-0
1664907802,C;S;V;F,14.0,0x00c000,-39.0,
1664907803,,14.4,0x00c000,-38.8,0.00e-0
1664907804,C;S;V;F,14.1,0x00c000,-38.9,0.00e-0
1664907805,C;S;V;F,14.2,0x00c000,-38.8,0.00e-0
1664907806,C;S;V;F,,0x00c000,-38.5,0.00e-0
1664907807,C;S;V;F,14.6,0x00c000,-38.2,0.00e-0
1664907808,C;S;V;F,14.9,0x00c000,,0.00e-0
1664907809,C;S;V;F,14.8,0x00c000,-38.3,0.00e-0
1664907810,C;S;V;F,14.4,0x00c000,-38.8,0.00e-0
1664907811,C;S;V;F,13.9,0x00c000,-39.0,0.00e-0
1664907812,C;S;V;F,14.1,0x00c000,-39.0,0.00e-0
1664907813,C;S;V;F,14.2,0x00c000,-38.6,0.00e-0
1664907814,C;S;V;F,14.7,0x00c000,-38.2,0.00e-0
1664907815,C;S;V;F,15.0,0x00c000,-38.2,
1664907816,,14.8,0x00c000,-38.1,0.00e-0
1664907817,C;S;V;F,15.0,0x00c000,-38.2,0.00e-0
1664907818,C;S;V;F,14.7,0x00c000,-38.4,0.00e-0
1664907819,C;S;V;F,,0x00c000,-38.7,0.00e-0
1664907820,C;S;V;F,14.7,0x00c000,,0.00e-0
1664907821,C;S;V;F,14.1,0x00c000,-38.9,0.00e-0
1664907822,C;S;V;F,14.2,0x00c000,-39.1,0.00e-0
1664907823,C;S;V;F,14.5,0x00c000,-38.7,0.00e-0
1664907824,C;S;V;F,14.6,0x00c000,-38.4,0.00e-0
1664907825,C;S;V;F,14.5,0x00c000,-38.5,0.00e-0
1664907826,C;S;V;F,14.1,0x00c000,-39.0,0.00e-0
1664907827,C;S;V;F,14.2,0x00c000,-38.8,0.00e-0
1664907828,C;S;V;F,14.6,0x00c000,-38.4,0.00e-0
1664907829,C;S;V;F,14.6,0x00c000,-38.4,
1664907830,,14.6,0x00c000,-38.4,0.00e-0
1664907831,C;S;V;F,14.6,0x00c000,-38.7,0.00e-0
1664907832,C;S;V;F,14.6,0x00c000,-38.8,0.00e-0
1664907833,C;S;V;F,,0x00c000,-38.8,0.00e-0
1664907834,C;S;V;F,14.0,0x00c000,,0.00e-0
1664907835,C;S;V;F,13.9,0x00c000,-39.0,0.00e-0
1664907836,C;S;V;F,14.0,0x00c000,-39.2,0.00e-0
1664907837,C;S;V;F,13.7,0x00c000,-39.3,0.00e-0
1664907839,,13.9,0x00c000,-39.0,
1664907840,C;S;V;F,14.2,0x00c000,-38.8,0.00e-0
1664907841,C;S;V;F,,0x00c000,-38.8,0.00e-0
1664907842,C;S;V;F,14.2,0x00c000,,0.00e-0
1664907843,C;S;V;F,14.1,0x00c000,-39.0,0.00e-0
1664907844,C;S;V;F,14.0,0x00c000,-39.2,0.00e-0
1664907845,C;S;V;F,13.7,0x00c000,-39.4,0.00e-0
1664907846,C;S;V;F,14.2,0x00c000,-38.8,
1664907847,,14.3,0x00c000,-38.7,0.00e-0
1664907848,C;S;V;F,14.8,0x00c000,-38.1,0.00e-0
1664907849,C;S;V;F,15.2,0x00c000,-37.8,0.00e-0
1664907850,C;S;V;F,,0x00c000,-38.0,0.00e-0
1664907851,C;S;V;F,15.1,0x00c000,-38.0,0.00e-0
1664907852,C;S;V;F,15.0,0x00c000,,0.00e-0
1664907853,C;S;V;F,14.9,0x00c000,-37.9,0.00e-0
1664907854,C;S;V;F,15.2,0x00c000,-37.9,0.00e-0
1664907855,C;S;V;F,15.2,0x00c000,-37.7,0.00e-0
1664907856,C;S;V;F,15.3,0x00c000,-37.8,0.00e-0
1664907857,C;S;V;F,15.4,0x00c000,-37.5,0.00e-0
1664907858,C;S;V;F,15.6,0x00c000,-37.2,0.00e-0
1664907859,C;S;V;F,15.9,0x00c000,-37.1,0.00e-0
1664907860,C;S;V;F,15.7,0x00c000,-37.1,0.00e-0
1664907861,,15.9,0x00c000,-37.1,
1664907862,C;S;V;F,15.9,0x00c000,-36.9,0.00e-0
1664907863,C;S;V;F,15.6,0x00c000,-37.2,0.00e-0
1664907864,C;S;V;F,15.6,0x00c000,-37.2,0.00e-0
1664907865,C;S;V;F,,0x00c000,-37.4,0.00e-0
1664907866,C;S;V;F,15.8,0x00c000,,0.00e-0
1664907867,C;S;V;F,15.8,0x00c000,-37.2,0.00e-0
1664907868,C;S;V;F,15.6,0x00c000,-37.2,0.00e-0
1664907869,C;S;V;F,15.5,0x00c000,-37.2,0.00e-0
1664907870,C;S;V;F,15.8,0x00c000,-37.1,0.00e-0
1664907871,C;S;V;F,16.0,0x00c000,-36.8,0.00e-0
1664907872,C;S;V;F,16.2,0x00c000,-36.7,0.00e-0
1664907873,C;S;V;F,16.3,0x00c000,-36.7,0.00e-0
1664907874,C;S;V;F,16.2,0x00c000,-36.5,
1664907875,,16.3,0x00c000,-36.5,0.00e-0
1664907876,C;S;V;F,16.0,0x00c000,-36.6,0.00e-0
1664907877,C;S;V;F,16.2,0x00c000,-36.5,0.00e-0
1664907878,C;S;V;F,,0x00c000,-36.3,0.00e-0
1664907879,C;S;V;F,16.3,0x00c000,,0.00e-0
1664907880,C;S;V;F,16.4,0x00c000,-36.3,0.00e-0
1664907881,C;S;V;F,16.4,0x00c000,-36.4,0.00e-0
1664907882,C;S;V;F,16.4,0x00c000,-36.3,0.00e-0
1664907883,C;S;V;F,16.5,0x00c000,-36.1,0.00e-0
1664907884,C;S;V;F,16.6,0x00c000,-36.0,0.00e-0
1664907885,C;S;V;F,16.7,0x00c000,-36.0,0.00e-0
1664907886,C;S;V;F,16.7,0x00c000,-36.1,0.00e-0
1664907887,,16.5,0x00c000,-36.0,
1664907888,C;S;V;F,16.5,0x00c000,-36.1,0.00e-0
1664907889,C;S;V;F,,0x00c000,-36.3,0.00e-0
1664907890,C;S;V;F,16.2,0x00c000,-36.6,0.00e-0
1664907891,C;S;V;F,16.3,0x00c000,,0.00e-0
1664907892,C;S;V;F,15.7,0x00c000,-37.1,0.00e-0
1664907893,C;S;V;F,15.8,0x00c000,-37.2,0.00e-0
1664907894,C;S;V;F,15.6,0x00c000,-37.2,0.00e-0
1664907895,C;S;V;F,15.8,0x00c000,-37.2,0.00e-0
1664907896,C;S;V;F,15.6,0x00c000,-37.2,0.00e-0
1664907897,C;S;V;F,15.7,0x00c000,-37.1,0.00e-0